Location: Domicella
(40.8833°N, 14.5833°E)
Time: 11:20:13
(UTC+00:00)

USA 234 - Pass Details

Date: 15 May 2026
Orbit: 1102 x 1106 km, 123.0° (Epoch: 4 January)

Event Time Altitude Azimuth Distance (km) Brightness Sun altitude
Rises 22:39:51 0° 46° (NE) 3,924 6.7 -29.9°
Reaches altitude 10° 22:42:20 10° 47° (NE) 2,964 5.9 -30.0°
Maximum altitude 22:48:54 88° 318° (NW) 1,108 3.1 -30.0°
Enters shadow 22:49:36 74° 237° (WSW) 1,146 3.1 -30.0°
